South Portland, ME

6:45 AM EST on February 28, 2017 (GMT -0500)
Portland International

Weather History for KPWM - June, 2013

Change the Weather History Date:

Thursday, June 20, 2013

  Actual Average Record
Temperature  
Mean Temperature 62 °F 65 °F  
Max Temperature 73 °F 75 °F 93 °F (1964)
Min Temperature 50 °F 55 °F 43 °F (1946)
Degree Days  
Heating Degree Days 3 2  
Month to date heating degree days 70 89  
Since 1 June heating degree days 70 89  
Since 1 July heating degree days 6562 7090  
Cooling Degree Days 0 2  
Month to date cooling degree days 27 29  
Year to date cooling degree days 42 36  
Since 1 June cooling degree days 27 29  
Growing Degree Days 12 (Base 50)    
Moisture  
Dew Point 49 °F    
Average Humidity 61    
Maximum Humidity 84    
Minimum Humidity 38    
Precipitation  
Precipitation 0.00 in 0.12 in 4.03 in (1967)
Month to date precipitation 3.83 2.68  
Year to date precipitation 19.63 21.88  
Snow  
Snow 0.00 in 0.00 in 0.00 in (2002)
Month to date snowfall 0.0 0.0  
Since 1 June snowfall 0.0 0.0  
Since 1 July snowfall 98.0 61.9  
Snow Depth 0.00 in    
Sea Level Pressure  
Sea Level Pressure 30.22 in    
Wind  
Wind Speed 7 mph (SSW)    
Max Wind Speed 16 mph    
Max Gust Speed 25 mph    
Visibility 10 miles    
Events      
T = Trace of Precipitation, MM = Missing Value Source: NWS Daily Summary

Daily Weather History Graph

Daily Weather History Graph

Search for Another Location

Airport or City:

Trip Planner

Search our weather history database for the weather conditions in past years. The results will help you decide how hot, cold, wet, or windy it might be!

Date:

Astronomy

Jun. 20, 2013 Rise Set
Actual Time 4:59 AM EDT 8:26 PM EDT
Civil Twilight 4:23 AM EDT 9:02 PM EDT
Nautical Twilight 3:36 AM EDT 9:49 PM EDT
Astronomical Twilight 2:36 AM EDT 10:49 PM EDT
Moon 5:21 PM EDT (6/20) 2:28 AM EDT (6/20)
Length of Visible Light 16h 38m
Length of Day
15h 26m
Waxing Gibbous, 89% of the Moon is Illuminated
Jun 20
Waxing Gibbous
Jun 23
Full
Jun 30
Last Quarter
Jul 8
New
Jul 15
First Quarter

Hourly Weather History & Observations

Time (EDT) Temp. Dew Point Humidity Pressure Visibility Wind Dir Wind Speed Gust Speed Precip Events Conditions
12:51 AM 55.9 °F 48.9 °F 77% 30.16 in 10.0 mi West 4.6 mph - N/A   Clear
1:51 AM 54.0 °F 48.0 °F 80% 30.17 in 10.0 mi West 3.5 mph - N/A   Clear
2:51 AM 53.1 °F 46.9 °F 80% 30.17 in 10.0 mi Calm Calm - N/A   Clear
3:51 AM 53.1 °F 46.0 °F 77% 30.18 in 10.0 mi West 3.5 mph - N/A   Clear
4:51 AM 51.1 °F 46.0 °F 83% 30.20 in 10.0 mi West 4.6 mph - N/A   Partly Cloudy
5:51 AM 52.0 °F 46.9 °F 83% 30.22 in 10.0 mi Calm Calm - N/A   Partly Cloudy
6:51 AM 57.0 °F 48.9 °F 74% 30.24 in 10.0 mi Calm Calm - N/A   Clear
7:51 AM 62.1 °F 48.0 °F 60% 30.25 in 10.0 mi North 6.9 mph - N/A   Clear
8:51 AM 66.9 °F 48.9 °F 52% 30.25 in 10.0 mi NNW 3.5 mph - N/A   Clear
9:51 AM 69.1 °F 46.9 °F 45% 30.25 in 10.0 mi Variable 4.6 mph - N/A   Clear
10:51 AM 72.0 °F 45.0 °F 38% 30.25 in 10.0 mi East 5.8 mph - N/A   Clear
11:51 AM 73.0 °F 46.9 °F 39% 30.24 in 10.0 mi ENE 6.9 mph - N/A   Scattered Clouds
12:51 PM 71.1 °F 46.9 °F 42% 30.24 in 10.0 mi SSE 12.7 mph - N/A   Scattered Clouds
1:51 PM 73.0 °F 48.9 °F 42% 30.23 in 10.0 mi South 10.4 mph - N/A   Partly Cloudy
2:51 PM 70.0 °F 46.9 °F 44% 30.23 in 10.0 mi South 10.4 mph - N/A   Clear
3:51 PM 70.0 °F 46.9 °F 44% 30.22 in 10.0 mi South 11.5 mph - N/A   Clear
4:51 PM 71.1 °F 48.0 °F 44% 30.20 in 10.0 mi South 13.8 mph 19.6 mph N/A   Clear
5:51 PM 69.1 °F 46.0 °F 44% 30.20 in 10.0 mi South 12.7 mph - N/A   Clear
6:51 PM 66.9 °F 46.9 °F 49% 30.21 in 10.0 mi South 13.8 mph - N/A   Clear
7:51 PM 64.9 °F 53.1 °F 65% 30.21 in 10.0 mi South 8.1 mph - N/A   Clear
8:51 PM 63.0 °F 55.0 °F 75% 30.22 in 10.0 mi South 8.1 mph - N/A   Clear
9:51 PM 62.1 °F 55.0 °F 78% 30.22 in 10.0 mi South 5.8 mph - N/A   Clear
10:51 PM 61.0 °F 55.0 °F 81% 30.21 in 10.0 mi SSW 5.8 mph - N/A   Clear
11:51 PM 60.1 °F 55.0 °F 83% 30.22 in 10.0 mi Calm Calm - N/A   Clear